"Platform","Reno Beach Station"
"Latitude (deg)",41.68
"Longitude (deg)",-83.25
"Water Depth (m)",7
"Sensor Device","Nortek AWAC 600 KHz Meter"
"Sensor Serial No.","6526"
"Sensor Depth","0.5 meters above water bottom"
"Sensor Type","Ice measurements: AST = distance to surface; ICE = distance to bottom of ice"
"Sensor Units","millimeters"
"Measurement","Average distance over 20 minute sampling period"
"Time means","Time at beginning of sampling period (UTC time zone)"

"Note:","This data was collected for research purposes."
"Note:","Minimal quality checking has been performed so data may contain known or unknown errors."
"Note:","Data provided by NOAA. Please credit NOAA."
"Note:","For more info see www.glerl.noaa.gov/res/recon"

"Time (UTC)","AST","ICE"
"YYYY/MM/DD HH:MM","mm","mm"
2024/01/19 19:06:11, 6090, 6065
2024/01/19 20:06:11, 6123, 6089
2024/01/19 21:06:11, 6137, 6131
2024/01/19 22:06:11, 6148, 6136
2024/01/19 23:06:11, 6159, 6155
2024/01/20 00:06:11, 6085, 6079
2024/01/20 01:06:11, 5991, 5919
2024/01/20 02:06:11, 5960, 5926
2024/01/20 03:06:11, 5909, 5874
2024/01/20 04:06:11, 5780, 5753
2024/01/20 05:06:11, 5896, 5860
2024/01/20 06:06:11, 5906, 5895
2024/01/20 07:06:11, 5913, 5915
2024/01/20 08:06:11, 5957, 5945
2024/01/20 09:06:11, 6002, 5986
2024/01/20 10:06:11, 6026, 6009
2024/01/20 11:06:11, 6064, 6053
2024/01/20 12:06:11, 6061, 6044
2024/01/20 13:06:11, 6046, 6031
2024/01/20 14:06:11, 6004, 5983
2024/01/20 15:06:11, 5992, 5975
2024/01/20 16:06:11, 5946, 5920
2024/01/20 17:06:11, 5870, 5863
2024/01/20 18:06:11, 5794, 5786
2024/01/20 19:06:11, 5752, 5744
2024/01/20 20:06:11, 5736, 5733
2024/01/20 21:06:11, 5772, 5752
2024/01/20 22:06:11, 5665, 5614
2024/01/20 23:06:11, 5962, 5926
2024/01/21 00:06:11, 5998, 5985
2024/01/21 01:06:11, 6040, 6021
2024/01/21 02:06:11, 6069, 6056
2024/01/21 03:06:11, 6041, 6014
2024/01/21 04:06:11, 6008, 5985
2024/01/21 05:06:11, 5966, 5952
2024/01/21 06:06:11, 5871, 5847
2024/01/21 07:06:11, 5598, 5571
2024/01/21 08:06:11, 5717, 5672
2024/01/21 09:06:11, 5826, 5799
2024/01/21 10:06:11, 5964, 5903
2024/01/21 11:06:11, 5942, 5918
2024/01/21 12:06:11, 5887, 5849
2024/01/21 13:06:11, 5830, 5790
2024/01/21 14:06:11, 5790, 5771
2024/01/21 15:06:11, 5932, 5914
2024/01/21 16:06:11, 5948, 5929
2024/01/21 17:06:11, 5917, 5892
2024/01/21 19:06:11, 5958, 5922
2024/01/21 20:06:11, 6021, 6006
2024/01/21 21:06:11, 5903, 5886
2024/01/21 22:06:11, 5918, 5872
2024/01/21 23:06:11, 5944, 5957
2024/01/22 00:06:11, 5902, 5914
2024/01/22 01:06:11, 5904, 5920
2024/01/22 02:06:11, 5906, 5917
2024/01/22 03:06:11, 5914, 5922
2024/01/22 04:06:11, 5929, 5905
2024/01/22 05:06:11, 5970, 5973
2024/01/22 06:06:11, 6002, 6007
2024/01/22 07:06:11, 6030, 6030
2024/01/22 08:06:11, 6045, 6048
2024/01/22 09:06:11, 6038, 6040
2024/01/22 10:06:11, 6078, 6093
2024/01/22 11:06:11, 6095, 6100
2024/01/22 12:06:11, 6077, 6065
2024/01/22 13:06:11, 6041, 5962
2024/01/22 14:06:11, 5998, 6018
2024/01/22 15:06:11, 5975, 5966
2024/01/22 16:06:11, 5929, 5937
2024/01/22 17:06:11, 5884, 5876
2024/01/22 18:06:11, 5892, 5883
2024/01/22 19:06:11, 5904, 5912
2024/01/22 20:06:11, 5917, 5891
2024/01/22 21:06:11, 5918, 5802
2024/01/22 22:06:11, 5961, 5920
2024/01/22 23:06:11, 5980, 5903
2024/01/23 00:06:11, 5983, 5943
2024/01/23 01:06:11, 6002, 5774
2024/01/23 02:06:11, 6033, 6030
2024/01/23 03:06:11, 6029, 6021
2024/01/23 04:06:11, 6011, 6027
2024/01/23 05:06:11, 5941, 5964
2024/01/23 06:06:11, 5934, 5948
2024/01/23 07:06:11, 5955, 5965
2024/01/23 08:06:11, 6018, 6030
2024/01/23 09:06:11, 6071, 6085
2024/01/23 10:06:11, 6121, 6135
2024/01/23 11:06:11, 6140, 6154
2024/01/23 12:06:11, 6144, 6163
2024/01/23 13:06:11, 6128, 6142
2024/01/23 14:06:11, 6092, 6100
2024/01/23 15:06:11, 6074, 6092
2024/01/23 16:06:11, 6049, 6064
2024/01/23 17:06:11, 6048, 6066
2024/01/23 18:06:11, 6037, 6053
2024/01/23 19:06:11, 6049, 6063
2024/01/23 20:06:11, 6089, 6108
2024/01/23 21:06:11, 6110, 6131
2024/01/23 22:06:11, 6108, 6132
2024/01/23 23:06:11, 6106, 6131
2024/01/24 00:06:11, 6117, 6141
2024/01/24 01:06:11, 6116, 6137
2024/01/24 02:06:11, 6120, 6133
2024/01/24 03:06:11, 6129, 6146
2024/01/24 04:06:11, 6107, 6126
2024/01/24 05:06:11, 6059, 6077
2024/01/24 06:06:11, 6031, 6055
2024/01/24 07:06:11, 6019, 6044
2024/01/24 08:06:11, 5999, 6025
2024/01/24 09:06:11, 5993, 6017
2024/01/24 10:06:11, 6009, 6034
2024/01/24 11:06:11, 6059, 6082
2024/01/24 12:06:11, 6112, 6117
2024/01/24 13:06:11, 6147, 6166
2024/01/24 14:06:11, 6182, 6200
2024/01/24 15:06:11, 6191, 6210
2024/01/24 16:06:11, 6173, 6187
2024/01/24 17:06:11, 6140, 6160
2024/01/24 18:06:11, 6103, 6116
2024/01/24 19:06:11, 6068, 6087
2024/01/24 20:06:11, 6041, 6051
2024/01/24 21:06:11, 6036, 6053
2024/01/24 22:06:11, 6055, 6078
2024/01/24 23:06:11, 6062, 6084
2024/01/25 00:06:11, 6072, 6095
2024/01/25 01:06:11, 6101, 6120
2024/01/25 02:06:11, 6112, 6132
2024/01/25 03:06:11, 6104, 6130
2024/01/25 04:06:11, 6095, 6120
2024/01/25 05:06:11, 6081, 6106
2024/01/25 06:06:11, 6080, 6105
2024/01/25 07:06:11, 6081, 6105
2024/01/25 08:06:11, 6090, 6115
2024/01/25 09:06:11, 6100, 6123
2024/01/25 10:06:11, 6095, 6120
2024/01/25 11:06:11, 6106, 6128
2024/01/25 12:06:11, 6108, 6133
2024/01/25 13:06:11, 6075, 6045
2024/01/25 14:06:11, 6122, 6101
2024/01/25 15:06:11, 6101, 6097
2024/01/25 16:06:11, 6106, 6087
2024/01/25 17:06:11, 6052, 6054
2024/01/25 18:06:11, 6076, 6055
2024/01/25 19:06:11, 6081, 6072
2024/01/25 20:06:11, 6087, 6078
2024/01/25 21:06:11, 5216, 4956
2024/01/25 22:06:11, 6159, 6141
2024/01/26 00:06:11, 6103, 6086
2024/01/26 01:06:11, 6182, 6148
2024/01/26 02:06:11, 6225, 6166
2024/01/26 03:06:11, 6235, 6014
2024/01/26 04:06:11, 6202, 6191
2024/01/26 05:06:11, 6238, 6144
2024/01/26 06:06:11, 6280, 6272
2024/01/26 08:06:11, 6300, 6288
2024/01/26 09:06:11, 6265, 6252
2024/01/26 10:06:11, 6241, 6239
2024/01/26 11:06:11, 6160, 6162
2024/01/26 12:06:11, 6154, 6147
2024/01/26 13:06:11, 6160, 6131
2024/01/26 14:06:11, 6094, 6072
2024/01/26 15:06:11, 6011, 5986
2024/01/26 16:06:11, 5915, 5903
2024/01/26 17:06:11, 5910, 5934
2024/01/26 18:06:11, 5894, 5919
2024/01/26 19:06:11, 5924, 5949
2024/01/26 20:06:11, 6016, 6041
2024/01/26 21:06:11, 6071, 6056
2024/01/26 22:06:11, 6080, 6079
2024/01/26 23:06:11, 6143, 6105
2024/01/27 00:06:11, 6355, 6341
2024/01/27 01:06:11, 6420, 6410
2024/01/27 02:06:11, 6344, 6330
2024/01/27 03:06:11, 6165, 6161
2024/01/27 04:06:11, 6128, 6104
2024/01/27 05:06:11, 6017, 6015
2024/01/27 06:06:11, 5953, 5943
2024/01/27 07:06:11, 5908, 5905
2024/01/27 08:06:11, 5974, 6000
2024/01/27 09:06:11, 6014, 6039
2024/01/27 10:06:11, 6035, 6061
2024/01/27 11:06:11, 6137, 6162
2024/01/27 12:06:11, 6248, 6273
2024/01/27 13:06:11, 6224, 6203
2024/01/27 14:06:11, 6267, 6261
2024/01/27 15:06:11, 6116, 6110
2024/01/27 16:06:11, 6078, 6068
2024/01/27 17:06:11, 5924, 5905
2024/01/27 18:06:11, 5320, 5278
2024/01/27 19:06:11, 5504, 5386
2024/01/27 20:06:11, 6063, 6081
2024/01/27 21:06:11, 6047, 6069
2024/01/27 22:06:11, 6020, 6039
2024/01/27 23:06:11, 6065, 6044
2024/01/28 00:06:11, 6135, 6114
2024/01/28 01:06:11, 6195, 6187
2024/01/28 02:06:11, 6234, 6218
2024/01/28 03:06:11, 6258, 6243
2024/01/28 04:06:11, 6318, 6312
2024/01/28 05:06:11, 6366, 6358
2024/01/28 06:06:11, 6333, 6326
2024/01/28 07:06:11, 6347, 6286
2024/01/28 08:06:11, 6131, 6116
2024/01/28 09:06:11, 6298, 6282
2024/01/28 10:06:11, 6328, 6303
2024/01/28 11:06:11, 6264, 6244
2024/01/28 12:06:11, 6309, 6297
2024/01/28 13:06:11, 6431, 6425
2024/01/28 14:06:11, 6306, 6284
2024/01/28 15:06:11, 6293, 6277
2024/01/28 16:06:11, 6264, 6268
2024/01/28 17:06:11, 6183, 6163
2024/01/28 18:06:11, 6163, 6146
2024/01/28 19:06:11, 6132, 6103
2024/01/28 20:06:11, 6141, 6128
2024/01/28 21:06:11, 6129, 6128
2024/01/28 22:06:11, 6153, 6112
2024/01/28 23:06:11, 6128, 6091
2024/01/29 00:06:11, 6072, 6081
2024/01/29 01:06:11, 6081, 6089
2024/01/29 02:06:11, 6158, 6147
2024/01/29 03:06:11, 6145, 6152
2024/01/29 04:06:11, 6197, 6178
2024/01/29 05:06:11, 6212, 6191
2024/01/29 06:06:11, 6162, 6148
2024/01/29 07:06:11, 6106, 6091
2024/01/29 08:06:11, 6068, 6047
2024/01/29 09:06:11, 5840, 5777
2024/01/29 10:06:11, 6113, 6137
2024/01/29 11:06:11, 6125, 6149
2024/01/29 12:06:11, 6111, 6136
2024/01/29 13:06:11, 6170, 6195
2024/01/29 14:06:11, 6196, 6204
2024/01/29 15:06:11, 6166, 6144
2024/01/29 16:06:11, 6170, 6162
2024/01/29 17:06:11, 6167, 6172
2024/01/29 18:06:11, 5972, 5921
2024/01/29 19:06:11, 6049, 6039
2024/01/29 20:06:11, 5976, 5964
2024/01/29 21:06:11, 6021, 5988
2024/01/29 22:06:11, 6136, 6146
2024/01/29 23:06:11, 6159, 6177
2024/01/30 00:06:11, 6156, 6173
2024/01/30 01:06:11, 6179, 6197
2024/01/30 02:06:11, 6179, 6183
2024/01/30 03:06:11, 6159, 6104
2024/01/30 04:06:11, 6138, 6152
2024/01/30 05:06:11, 6113, 6120
2024/01/30 06:06:11, 6112, 6052
2024/01/30 07:06:11, 6106, 6071
2024/01/30 08:06:11, 6094, 6074
2024/02/01 15:06:11, 6037, 5954
2024/02/01 16:06:11, 6041, 5944
2024/02/01 17:06:11, 6076, 6042
2024/02/01 18:06:11, 6134, 6144
2024/02/01 19:06:11, 6208, 6213
2024/02/01 20:06:11, 6224, 6230
2024/02/01 21:06:11, 6233, 6254
2024/02/01 22:06:11, 6227, 6253
2024/02/01 23:06:11, 6287, 6309
2024/02/02 00:06:11, 6289, 6304
2024/02/02 01:06:11, 6255, 6268
2024/02/02 02:06:11, 6205, 6224
2024/02/02 03:06:11, 6181, 6133
2024/02/02 04:06:11, 6211, 6228
2024/02/02 05:06:11, 6182, 6204
2024/02/02 06:06:11, 6193, 6214
2024/02/02 07:06:11, 6178, 6188
2024/02/02 08:06:11, 6152, 6159
2024/02/02 09:06:11, 6143, 6148
2024/02/02 10:06:11, 6156, 6147
2024/02/02 11:06:11, 6215, 6029
2024/02/02 12:06:11, 6278, 6202
2024/02/02 13:06:11, 6299, 6026
2024/02/02 14:06:11, 6310, 6235
2024/02/02 15:06:11, 6315, 6286
2024/02/02 16:06:11, 6327, 6259
2024/02/02 17:06:11, 6298, 6280
2024/02/02 18:06:11, 6263, 6258
2024/02/02 19:06:11, 6218, 6236
2024/02/02 20:06:11, 6189, 6211
2024/02/02 21:06:11, 6172, 6192
2024/02/02 22:06:11, 6162, 6184
2024/02/02 23:06:11, 6186, 6205
2024/02/03 00:06:11, 6192, 6184
2024/02/03 01:06:11, 6202, 6208
2024/02/03 02:06:11, 6226, 6194
2024/02/03 03:06:11, 6249, 6142
2024/02/03 04:06:11, 6287, 6288
2024/02/03 06:06:11, 6351, 6342
2024/02/03 07:06:11, 6341, 6355
2024/02/03 08:06:11, 6330, 6335
2024/02/03 09:06:11, 6286, 6269
2024/02/03 10:06:11, 6253, 6255
2024/02/03 11:06:11, 6213, 6217
2024/02/03 12:06:11, 6180, 6168
2024/02/03 13:06:11, 6171, 6190
2024/02/03 14:06:11, 6186, 6190
2024/02/03 15:06:11, 6218, 6239
2024/02/03 16:06:11, 6261, 6280
2024/02/03 17:06:11, 6285, 6305
2024/02/03 18:06:11, 6292, 6311
2024/02/03 19:06:11, 6293, 6301
2024/02/03 20:06:11, 6298, 6319
2024/02/03 21:06:11, 6274, 6294
2024/02/03 22:06:11, 6265, 6285
2024/02/03 23:06:11, 6244, 6262
2024/02/04 00:06:11, 6227, 6247
2024/02/04 01:06:11, 6214, 6233
2024/02/04 02:06:11, 6213, 6230
2024/02/04 03:06:11, 6209, 6221
2024/02/04 04:06:11, 6213, 6231
2024/02/04 05:06:11, 6225, 6236
2024/02/04 06:06:11, 6250, 6273
2024/02/04 07:06:11, 6279, 6302
2024/02/04 08:06:11, 6305, 6321
2024/02/04 09:06:11, 6308, 6324
2024/02/04 10:06:11, 6309, 6287
2024/02/04 11:06:11, 6314, 6324
2024/02/04 12:06:11, 6293, 6308
2024/02/04 13:06:11, 6276, 6280
2024/02/04 14:06:11, 6251, 6262
2024/02/04 15:06:11, 6234, 6249
2024/02/04 16:06:11, 6213, 6226
2024/02/04 17:06:11, 6214, 6231
2024/02/04 18:06:11, 5645, 5580
2024/02/04 19:06:11, 6222, 6240
2024/02/04 20:06:11, 6229, 6251
2024/02/04 21:06:11, 6243, 6267
2024/02/04 22:06:11, 6253, 6278
2024/02/04 23:06:11, 6246, 6269
2024/02/05 00:06:11, 6246, 6262
2024/02/05 01:06:11, 6218, 6241
2024/02/05 02:06:11, 6222, 6234
2024/02/05 03:06:11, 6211, 6236
2024/02/05 04:06:11, 6303, 6289
2024/02/05 05:06:11, 6327, 6322
2024/02/05 06:06:11, 6340, 6340
2024/02/05 07:06:11, 6324, 6337
2024/02/05 08:06:11, 6310, 6184
2024/02/05 09:06:11, 6297, 6260
2024/02/05 10:06:11, 6289, 6293
2024/02/05 11:06:11, 6269, 6282
2024/02/05 12:06:11, 6251, 6123
2024/02/05 13:06:11, 6237, 6204
2024/02/05 14:06:11, 6230, 6204
2024/02/05 15:06:11, 6229, 6231
2024/02/05 16:06:11, 6228, 6232
2024/02/05 17:06:11, 6238, 6247
2024/02/05 18:06:11, 6227, 6241
2024/02/05 19:06:11, 6233, 6246
2024/02/05 20:06:11, 6247, 6258
2024/02/05 21:06:11, 6275, 6271
2024/02/05 22:06:11, 6293, 6304
2024/02/05 23:06:11, 6300, 6321
2024/02/06 00:06:11, 6287, 6309
2024/02/06 01:06:11, 6193, 6162
2024/02/06 02:06:11, 6255, 6224
2024/02/06 03:06:11, 6239, 6183
2024/02/06 04:06:11, 6233, 6178
2024/02/06 05:06:11, 6245, 6186
2024/02/06 06:06:11, 6260, 6248
2024/02/06 07:06:11, 6280, 6266
2024/02/06 08:06:11, 6300, 6294
2024/02/06 09:06:11, 6310, 6312
2024/02/06 10:06:11, 6290, 6307
2024/02/06 11:06:11, 6270, 6286
2024/02/06 12:06:11, 6251, 6265
2024/02/06 13:06:11, 6237, 6232
2024/02/06 14:06:11, 6240, 6257
2024/02/06 15:06:11, 6243, 6248
2024/02/06 16:06:11, 6236, 6253
2024/02/06 17:06:11, 6242, 6254
2024/02/06 18:06:11, 6227, 6227
2024/02/06 19:06:11, 6219, 6227
2024/02/06 20:06:11, 6207, 6221
2024/02/06 21:06:11, 6217, 6226
2024/02/06 22:06:11, 6244, 6249
2024/02/06 23:06:11, 6260, 6282
2024/02/07 00:06:11, 6277, 6297
2024/02/07 01:06:11, 6276, 6297
2024/02/07 02:06:11, 6278, 6281
2024/02/07 03:06:11, 6266, 6284
2024/02/07 04:06:11, 6217, 6232
2024/02/07 05:06:11, 6201, 6221
2024/02/07 06:06:11, 6193, 6217
2024/02/07 07:06:11, 6205, 6227
2024/02/07 08:06:11, 6218, 6242
2024/02/07 09:06:11, 6255, 6280
2024/02/07 10:06:11, 6283, 6307
2024/02/07 11:06:11, 6287, 6312
2024/02/07 12:06:11, 6273, 6301
2024/02/07 13:06:11, 6240, 6263
2024/02/07 14:06:11, 6235, 6261
2024/02/07 15:06:11, 6216, 6241
2024/02/07 16:06:11, 6207, 6229
2024/02/07 17:06:11, 6220, 6243
2024/02/07 18:06:11, 6222, 6244
2024/02/07 19:06:11, 6230, 6250
2024/02/07 20:06:11, 6241, 6260
2024/02/07 21:06:11, 6228, 6249
2024/02/07 22:06:11, 6233, 6256
2024/02/07 23:06:11, 6239, 6262
2024/02/08 00:06:11, 6245, 6266
2024/02/08 01:06:11, 6264, 6288
2024/02/08 02:06:11, 6256, 6280
2024/02/08 03:06:11, 6264, 6287
2024/02/08 04:06:11, 6275, 6299
2024/02/08 05:06:11, 6250, 6275
2024/02/08 06:06:11, 6234, 6256
2024/02/08 07:06:11, 6230, 6243
2024/02/08 08:06:11, 6253, 6276
2024/02/08 09:06:11, 6264, 6288
2024/02/08 10:06:11, 6265, 6288
2024/02/08 11:06:11, 6281, 6303
2024/02/08 12:06:11, 6297, 6321
2024/02/08 13:06:11, 6301, 6317
2024/02/08 14:06:11, 6278, 6253
2024/02/08 15:06:11, 6262, 6264
2024/02/08 16:06:11, 6231, 6243
2024/02/08 17:06:11, 6214, 6229
2024/02/08 18:06:11, 6197, 6182
2024/02/08 19:06:11, 6204, 6081
2024/02/08 20:06:11, 6221, 6042
2024/02/08 21:06:11, 6248, 6114
2024/02/08 22:06:11, 6268, 6113
2024/02/08 23:06:11, 6290, 6287
2024/02/09 00:06:11, 6284, 6216
2024/02/09 01:06:11, 6257, 6154
2024/02/09 02:06:11, 6243, 6186
2024/02/09 03:06:11, 6226, 6129
2024/02/09 04:06:11, 6213, 6111
2024/02/09 05:06:11, 6189, 6123
2024/02/09 06:06:11, 6172, 6065
2024/02/09 07:06:11, 6121, 6016
2024/02/09 08:06:11, 5948, 5916
2024/02/09 09:06:11, 6169, 6108
2024/02/09 10:06:11, 6184, 6186
2024/02/09 11:06:11, 6205, 6134
2024/02/09 12:06:11, 6208, 6079
2024/02/09 13:06:11, 6223, 6006
2024/02/09 14:06:11, 6224, 6106
2024/02/09 15:06:11, 6218, 5839
2024/02/09 16:06:11, 6171, 5930
2024/02/09 17:06:11, 6124, 5941
2024/02/09 18:06:11, 6114, 5848
2024/02/09 19:06:11, 6108, 5528
2024/02/09 20:06:11, 6099, 5740
2024/02/09 21:06:11, 6103, 5962
2024/02/09 22:06:11, 6145, 6083
2024/02/09 23:06:11, 6197, 6186
2024/02/10 00:06:11, 6234, 6255
2024/02/10 01:06:11, 6258, 6276
2024/02/10 02:06:11, 6254, 6153
2024/02/10 03:06:11, 6241, 6188
2024/02/10 04:06:11, 6193, 6153
2024/02/10 05:06:11, 6144, 6103
2024/02/10 06:06:11, 6123, 6131
2024/02/10 07:06:11, 6099, 6086
2024/02/10 08:06:11, 6114, 6106
2024/02/10 09:06:11, 6127, 6134
2024/02/10 10:06:11, 6161, 6179
2024/02/10 11:06:11, 6204, 6224
2024/02/10 12:06:11, 6242, 6264
2024/02/10 13:06:11, 6280, 6302
2024/02/10 14:06:11, 6284, 6301
2024/02/10 15:06:11, 6266, 6277
2024/02/10 16:06:11, 6262, 6280
2024/02/10 17:06:11, 6223, 6236
2024/02/10 18:06:11, 6192, 6210
2024/02/10 19:06:11, 6155, 6159
2024/02/10 20:06:11, 6136, 6095
2024/02/10 21:06:11, 6115, 5989
2024/02/10 22:06:11, 6077, 6001
2024/02/10 23:06:11, 6102, 5997
2024/02/11 00:06:11, 6136, 6100
2024/02/11 01:06:11, 6145, 6024
2024/02/11 02:06:11, 6143, 6038
2024/02/11 03:06:11, 6187, 6120
2024/02/11 04:06:11, 6249, 6160
2024/02/11 05:06:11, 6246, 6115
2024/02/11 06:06:11, 6252, 6183
2024/02/11 07:06:11, 6255, 6236
2024/02/11 08:06:11, 6233, 6131
2024/02/11 09:06:11, 6174, 6127
2024/02/11 10:06:11, 6152, 6146
2024/02/11 11:06:11, 6145, 6141
2024/02/11 12:06:11, 6171, 6170
2024/02/11 13:06:11, 6200, 6219
2024/02/11 14:06:11, 6231, 6248
2024/02/11 15:06:11, 6269, 6283
2024/02/11 16:06:11, 6280, 6293
2024/02/11 18:06:11, 6239, 6267
2024/02/11 19:06:11, 6217, 6242
2024/02/11 20:06:11, 6208, 6226
2024/02/11 21:06:11, 6193, 6214
2024/02/11 22:06:11, 6190, 6209
2024/02/11 23:06:11, 6208, 6226
2024/02/12 00:06:11, 6222, 6241
2024/02/12 01:06:11, 6233, 6250
2024/02/12 02:06:11, 6238, 6255
2024/02/12 03:06:11, 6218, 6237
2024/02/12 04:06:11, 6213, 6233
2024/02/12 05:06:11, 6204, 6225
2024/02/12 06:06:11, 6193, 6214
2024/02/12 07:06:11, 6201, 6213
2024/02/12 08:06:11, 6205, 6097
2024/02/12 09:06:11, 6223, 6216
2024/02/12 10:06:11, 6226, 6237
2024/02/12 11:06:11, 6238, 6228
2024/02/12 12:06:11, 6230, 6220
2024/02/12 13:06:11, 6221, 6184
2024/02/12 14:06:11, 6242, 6250
2024/02/12 15:06:11, 6237, 6256
2024/02/12 16:06:11, 6244, 6258
2024/02/12 17:06:11, 6237, 6260
2024/02/12 18:06:11, 6218, 6236
2024/02/12 19:06:11, 6203, 6220
2024/02/12 20:06:11, 6202, 6218
2024/02/12 21:06:11, 6204, 6211
2024/02/12 22:06:11, 6209, 6202
2024/02/12 23:06:11, 6199, 6207
2024/02/13 00:06:11, 6234, 6250
2024/02/13 01:06:11, 6279, 6289
2024/02/13 02:06:11, 6308, 6322
2024/02/13 03:06:11, 6316, 6328
2024/02/13 04:06:11, 6302, 6324
2024/02/13 05:06:11, 6262, 6283
2024/02/13 06:06:11, 6230, 6244
2024/02/13 07:06:11, 6184, 6181
2024/02/13 08:06:11, 6157, 6113
2024/02/13 09:06:11, 6129, 6045
2024/02/13 10:06:11, 6113, 6062
2024/02/13 11:06:11, 6101, 5996
2024/02/13 12:06:11, 6121, 6059
2024/02/13 13:06:11, 6133, 6058
2024/02/13 14:06:11, 6165, 6044
2024/02/13 15:06:11, 6161, 6145
2024/02/13 16:06:11, 6196, 6203
2024/02/13 17:06:11, 6196, 6201
2024/02/13 18:06:11, 6208, 6226
2024/02/13 19:06:11, 6190, 6207
2024/02/13 20:06:11, 6185, 6153
2024/02/13 21:06:11, 6137, 6019
2024/02/13 22:06:11, 6090, 6020
2024/02/13 23:06:11, 6073, 6034
2024/02/14 00:06:11, 6028, 5973
2024/02/14 01:06:11, 6042, 6020
2024/02/14 02:06:11, 6038, 6019
2024/02/14 03:06:11, 6123, 6061
2024/02/14 04:06:11, 6231, 6198
2024/02/14 05:06:11, 6320, 6261
2024/02/14 06:06:11, 6378, 6332
2024/02/14 07:06:11, 6394, 6367
2024/02/14 08:06:11, 6361, 6353
2024/02/14 09:06:11, 6296, 6217
2024/02/14 10:06:11, 6212, 6177
2024/02/14 11:06:11, 6159, 6170
2024/02/14 12:06:11, 6133, 6132
2024/02/14 13:06:11, 6115, 6117
2024/02/14 14:06:11, 6119, 6118
2024/02/14 15:06:11, 6150, 6167
2024/02/14 16:06:11, 6172, 6193
2024/02/14 17:06:11, 6200, 6221
2024/02/14 18:06:11, 6221, 6237
2024/02/14 19:06:11, 6212, 6235
2024/02/14 20:06:11, 6229, 6246
2024/02/14 21:06:11, 6223, 6239
2024/02/14 22:06:11, 6224, 6240
2024/02/14 23:06:11, 6235, 6244
2024/02/15 00:06:11, 6218, 6231
2024/02/15 01:06:11, 6201, 6216
2024/02/15 02:06:11, 6182, 6199
2024/02/15 03:06:11, 6163, 6176
2024/02/15 04:06:11, 6160, 6091
2024/02/15 05:06:11, 6191, 6184
2024/02/15 06:06:11, 6234, 6218
2024/02/15 07:06:11, 6251, 6249
2024/02/15 08:06:11, 6290, 6299
2024/02/15 09:06:11, 6300, 6305
2024/02/15 10:06:11, 6310, 6316
2024/02/15 11:06:11, 6302, 6282
2024/02/15 12:06:11, 6294, 6245
2024/02/15 13:06:11, 6324, 6329
2024/02/15 14:06:11, 6355, 6320
2024/02/15 15:06:11, 6346, 6234
2024/02/15 16:06:11, 6309, 5957
2024/02/15 17:06:11, 6250, 5939
2024/02/15 18:06:11, 6158, 6024
2024/02/15 19:06:11, 6021, 5541
2024/02/15 20:06:11, 5924, 5611
2024/02/15 21:06:11, 5777, 5640
2024/02/15 22:06:11, 5710, 5620
2024/02/15 23:06:11, 5610, 5433
2024/02/16 00:06:11, 5590, 5401
2024/02/16 01:06:11, 5597, 5548
2024/02/16 02:06:11, 5621, 5525
2024/02/16 03:06:11, 5662, 5585
2024/02/16 04:06:11, 5721, 5640
2024/02/16 05:06:11, 5861, 5832
2024/02/16 06:06:11, 6073, 5999
2024/02/16 07:06:11, 6270, 6231
2024/02/16 08:06:11, 6331, 6321
2024/02/16 09:06:11, 6358, 6327
2024/02/16 10:06:11, 6267, 6246
2024/02/16 11:06:11, 6124, 6116
2024/02/16 12:06:11, 6032, 6019
2024/02/16 13:06:11, 6035, 6019
2024/02/16 14:06:11, 6053, 6061
2024/02/16 15:06:11, 6056, 6073
2024/02/16 16:06:11, 6119, 6132
2024/02/16 17:06:11, 6175, 6196
2024/02/16 18:06:11, 6232, 6256
2024/02/16 19:06:11, 6260, 6281
2024/02/16 20:06:11, 6271, 6290
2024/02/16 21:06:11, 6254, 6259
2024/02/16 22:06:11, 6219, 6225
2024/02/16 23:06:11, 6213, 6227
2024/02/17 00:06:11, 6209, 6082
2024/02/17 01:06:11, 6204, 6034
2024/02/17 02:06:11, 6176, 6182
2024/02/17 03:06:11, 6165, 6121
2024/02/17 04:06:11, 6152, 6120
2024/02/17 05:06:11, 6120, 6088
2024/02/17 06:06:11, 6103, 5837
2024/02/17 07:06:11, 6121, 5859
2024/02/17 08:06:11, 6126, 6067
2024/02/17 09:06:11, 6132, 6029
2024/02/17 10:06:11, 6149, 5969
2024/02/17 11:06:11, 6122, 6071
2024/02/17 12:06:11, 6122, 5943
2024/02/17 13:06:11, 6028, 5869
2024/02/17 14:06:11, 5990, 5786
2024/02/17 15:06:11, 5971, 5855
2024/02/17 16:06:11, 5917, 5653
2024/02/17 17:06:11, 5898, 5754
2024/02/17 18:06:11, 5957, 5795
2024/02/17 19:06:11, 5981, 5847
2024/02/17 20:06:11, 6030, 5813
2024/02/17 21:06:11, 6062, 5899
2024/02/17 22:06:11, 6054, 5820
2024/02/17 23:06:11, 6011, 5745
2024/02/18 00:06:11, 5909, 5797
2024/02/18 01:06:11, 5780, 5481
2024/02/18 02:06:11, 5684, 5202
2024/02/18 03:06:11, 5607, 5513
2024/02/18 04:06:11, 5494, 5089
2024/02/18 05:06:11, 5395, 5205
2024/02/18 06:06:11, 5344, 5065
2024/02/18 07:06:11, 5259, 5038
2024/02/18 08:06:11, 5172, 5027
2024/02/18 09:06:11, 5230, 5202
2024/02/18 10:06:11, 5379, 5216
2024/02/18 11:06:11, 5520, 5409
2024/02/18 12:06:11, 5661, 5466
2024/02/18 13:06:11, 5776, 5713
2024/02/18 14:06:11, 5849, 5765
2024/02/18 15:06:11, 5864, 5607
2024/02/18 16:06:11, 5832, 5657
2024/02/18 17:06:11, 5821, 5628
2024/02/18 18:06:11, 5810, 5727
2024/02/18 19:06:11, 5804, 5668
2024/02/18 20:06:11, 5776, 5581
2024/02/18 21:06:11, 5758, 5647
2024/02/18 22:06:11, 5750, 5700
2024/02/18 23:06:11, 5786, 5733
2024/02/19 00:06:11, 5826, 5772
2024/02/19 01:06:11, 5853, 5815
2024/02/19 02:06:11, 5929, 5897
2024/02/19 03:06:11, 5993, 5992
2024/02/19 04:06:11, 6080, 6090
2024/02/19 05:06:11, 6192, 6206
2024/02/19 06:06:11, 6295, 6308
2024/02/19 07:06:11, 6326, 6340
2024/02/19 08:06:11, 6322, 6339
2024/02/19 09:06:11, 6306, 6332
2024/02/19 10:06:11, 6270, 6294
2024/02/19 11:06:11, 6237, 6259
2024/02/19 12:06:11, 6259, 6274
2024/02/19 13:06:11, 6233, 6253
2024/02/19 14:06:11, 6213, 6224
2024/02/19 15:06:11, 6157, 6175
2024/02/19 16:06:11, 6144, 6166
2024/02/19 17:06:11, 6177, 6195
2024/02/19 18:06:11, 6181, 6190
2024/02/19 19:06:11, 6202, 6198
2024/02/19 20:06:11, 6230, 6231
2024/02/19 21:06:11, 6269, 6276
2024/02/19 22:06:11, 6304, 6311
2024/02/19 23:06:11, 6333, 6346
2024/02/20 00:06:11, 6325, 6327
2024/02/20 01:06:11, 6300, 6308
2024/02/20 02:06:11, 6251, 6262
2024/02/20 03:06:11, 6208, 6216
2024/02/20 04:06:11, 6196, 6206
2024/02/20 05:06:11, 6199, 6211
2024/02/20 06:06:11, 6215, 6229
2024/02/20 07:06:11, 6220, 6236
2024/02/20 08:06:11, 6238, 6258
2024/02/20 09:06:11, 6254, 6271
2024/02/20 10:06:11, 6260, 6282
2024/02/20 11:06:11, 6250, 6273